Temperature
11 11 11 11 11 11 11 11 11 11 10 10 10 10 10 10 10 10 10 9 9 9 8 8 8 8 8 8 8 8 8 8 8 8 7 7 7 7 7 6 6 6 6
11 11 11 11 11 10 10 11 10 10 10 10 10 10 10 10 9 9 9 9 9 9 9 8 8 8 8 8 8 8 8 8 7 7 7 7 7 7 6 6 6 6 5
11 11 11 11 10 10 10 10 10 10 10 10 10 10 9 9 9 9 9 9 9 9 9 9 8 8 8 8 8 8 8 8 7 7 7 7 7 6 6 6 5 5 5
11 11 11 10 10 10 10 10 10 10 10 10 10 9 9 9 9 9 9 9 9 9 9 9 9 8 8 8 8 8 8 7 7 7 7 6 6 6 5 5 5 5 5
11 11 11 10 10 10 10 10 10 10 10 9 9 9 9 9 9 9 9 9 9 9 9 9 9 9 8 8 8 8 8 7 7 7 6 6 6 6 5 5 5 5 4
11 11 10 10 10 10 10 10 9 9 9 9 9 9 9 9 9 9 9 9 9 9 9 9 9 9 8 8 8 8 8 7 7 6 6 6 6 5 5 5 5 4 4
11 11 10 10 10 10 10 10 9 9 9 9 9 9 9 9 9 9 9 9 9 9 9 9 9 8 8 8 8 8 7 7 7 6 6 6 5 5 5 4 4 4 4
11 11 10 10 10 10 10 9 9 9 9 9 9 9 9 9 10 10 10 9 9 9 9 9 9 8 8 8 8 8 7 7 7 6 6 5 5 5 4 4 4 4 3
11 11 11 10 10 10 10 10 10 9 9 9 9 9 9 10 10 10 10 10 10 9 9 9 9 8 8 8 8 8 7 7 6 6 5 5 5 4 4 4 3 3 3
11 11 11 11 10 10 10 10 10 9 9 9 9 9 9 9 9 10 10 10 10 9 9 9 9 8 8 8 8 7 7 7 6 6 5 5 4 4 3 3 3 3 2
12 11 11 11 11 10 10 10 10 10 9 9 9 9 9 9 9 9 9 10 10 9 9 9 9 8 8 8 7 7 7 6 6 5 5 4 4 3 3 3 2 2 2
12 12 11 11 11 11 10 10 10 10 10 9 9 9 9 9 9 9 9 9 9 9 9 9 9 8 8 8 7 7 6 6 6 5 5 4 4 3 3 2 2 2 1
12 13 12 12 11 11 11 10 10 10 10 9 9 9 9 9 9 9 8 8 8 8 8 8 8 8 8 7 7 6 6 6 5 5 4 4 3 3 2 2 1 1 1
14 14 13 12 12 11 11 10 10 10 10 10 9 9 9 9 9 8 8 8 7 8 8 8 8 7 7 7 6 6 5 5 5 4 4 3 3 2 1 1 1 0 0
13 13 13 13 12 11 11 11 10 10 10 10 9 9 9 9 8 8 8 8 7 7 7 7 7 7 6 6 6 5 5 5 4 4 3 3 2 2 1 1 0 -0 -1
13 13 13 13 12 12 11 11 10 10 10 10 9 9 9 9 8 8 8 8 7 7 6 7 6 6 6 5 5 5 4 4 4 3 3 2 2 1 1 0 -0 -1 -1
13 13 13 13 12 12 11 11 11 10 10 10 9 9 9 9 8 8 8 7 7 7 6 6 6 6 5 5 5 4 4 4 3 3 2 2 1 1 0 -0 -1 -1 -2
13 13 13 12 12 12 11 11 11 10 10 10 9 9 9 8 8 8 8 7 7 7 6 6 6 5 5 5 4 4 4 3 3 2 2 1 1 0 -0 -1 -1 -2 -2
12 12 12 12 12 12 12 11 11 10 10 10 10 9 9 8 8 8 8 7 7 6 6 5 5 5 5 4 4 4 3 3 3 2 1 1 1 -0 -1 -1 -2 -2 -2
12 12 12 12 12 12 11 11 11 10 10 10 9 9 9 8 8 8 7 7 7 6 6 5 5 5 4 4 3 3 3 3 2 2 1 0 -0 -1 -1 -2 -2 -2 -3
12 12 12 12 12 11 11 11 11 10 10 10 9 9 8 8 8 7 7 7 6 6 5 5 5 4 4 3 3 2 2 2 2 1 1 0 -0 -1 -1 -2 -2 -3 -3
12 12 12 12 11 11 11 11 10 10 10 9 9 9 8 8 8 7 7 6 6 5 5 5 4 4 3 3 2 2 1 1 0 0 0 0 -1 -1 -2 -2 -3 -3 -4
12 11 12 11 11 11 11 11 10 10 10 9 9 9 8 8 7 7 7 6 6 5 5 4 4 3 3 2 2 1 1 0 -0 -1 -1 -0 -1 -1 -2 -3 -3 -4 -4
11 11 11 11 11 11 11 10 10 9 9 9 9 8 8 8 7 7 6 6 5 5 4 4 3 3 2 2 1 1 0 -0 -1 -1 -1 -2 -2 -2 -2 -3 -3 -4 -5
11 11 11 11 11 11 11 10 10 9 9 8 8 8 7 7 7 7 6 6 5 5 4 3 3 2 2 1 1 0 -0 -1 -1 -1 -2 -3 -3 -3 -2 -3 -3 -4 -5
11 11 11 11 11 11 10 10 9 9 8 8 8 7 7 7 7 6 6 5 5 4 4 3 2 2 1 1 0 -0 -1 -1 -2 -3 -3 -4 -4 -5 -4 -3 -4 -4 -5
Wind_Speed
7 7 7 8 9 9 9 8 7 7 6 6 6 7 5 5 4 4 5 6 5 5 5 5 6 6 6 6 7 7 7 8 9 9 10 11 11 12 12 13 13 14 14
10 8 7 6 7 9 9 8 7 6 5 5 4 5 5 4 4 4 4 4 4 4 4 4 4 4 4 5 5 6 6 7 8 9 9 10 11 11 12 13 14 14 15
13 10 7 6 7 10 9 8 7 6 4 3 3 3 3 3 3 3 2 2 3 3 3 2 2 2 3 3 4 5 5 6 7 8 9 10 11 11 12 13 14 15 15
16 11 7 6 9 10 8 5 4 4 3 3 2 1 2 2 2 2 2 2 2 1 2 2 1 2 2 2 3 4 5 6 7 8 9 10 11 12 13 13 14 15 16
18 13 8 8 11 8 5 5 3 3 3 3 2 2 1 1 1 2 2 2 2 1 0 1 1 2 3 3 4 5 6 7 8 9 10 10 11 12 13 14 15 16 17
17 14 9 10 11 6 5 5 4 3 3 4 3 2 1 1 0 2 2 2 3 3 2 1 1 2 3 5 5 6 7 8 9 10 10 11 12 13 14 15 16 16 17
17 14 9 9 9 8 8 7 5 4 3 3 3 2 2 1 1 2 2 2 3 4 3 3 3 3 3 4 6 7 8 9 10 11 12 12 13 14 15 16 17 17 18
17 15 11 10 9 8 8 8 6 4 3 3 4 2 1 3 2 1 2 3 3 3 3 4 4 4 4 4 5 6 8 10 11 12 12 13 14 15 16 17 17 18 19
17 15 14 11 10 10 10 9 9 8 5 3 2 4 3 3 2 2 2 2 2 2 3 4 4 5 4 4 5 6 7 9 11 12 12 13 15 16 17 17 18 19 19
16 16 15 13 12 10 10 10 9 6 7 5 2 1 2 3 2 2 3 2 2 3 3 3 4 5 5 6 6 7 8 10 11 12 13 14 15 17 17 18 19 19 20
14 15 15 13 12 11 11 11 10 8 7 6 5 3 2 1 2 2 3 3 2 2 3 3 4 5 6 7 8 8 9 10 12 13 13 14 15 17 18 18 19 20 20
12 15 15 14 13 11 12 12 11 11 9 7 6 5 4 4 4 4 4 3 3 3 2 2 3 5 6 7 8 8 9 11 12 12 13 14 15 16 17 18 19 19 20
12 16 15 14 13 12 12 11 11 11 10 9 8 6 5 4 4 4 3 2 2 2 2 2 3 4 5 6 7 8 9 11 11 12 12 13 14 15 16 17 18 19 20
14 15 16 15 14 13 12 12 10 11 10 10 9 8 5 5 4 4 4 4 1 2 2 4 2 3 4 5 6 6 8 9 10 11 12 13 14 15 16 17 18 19 19
12 14 16 15 14 14 13 13 10 11 10 10 9 9 6 5 5 4 4 4 4 3 4 3 2 2 3 3 5 5 7 9 10 11 12 13 13 14 15 16 17 18 19
14 15 16 15 14 14 14 13 10 9 10 9 7 8 7 5 5 4 4 3 4 5 4 3 3 2 1 3 5 5 7 8 10 11 12 12 13 14 15 16 16 17 18
15 16 16 16 15 15 14 13 12 12 12 10 9 10 9 7 6 5 4 4 4 4 5 3 2 1 1 2 4 5 6 7 8 10 11 12 13 14 14 15 15 16 17
16 16 15 15 15 15 15 15 14 13 13 12 11 10 9 7 8 6 5 5 5 5 5 5 2 2 2 2 2 3 5 6 8 10 11 11 12 13 14 14 15 16 16
15 14 15 16 15 15 15 14 14 13 13 12 12 12 11 10 9 7 6 6 5 4 4 4 3 1 1 1 2 3 3 4 7 8 9 11 12 13 13 13 14 15 15
16 15 15 15 15 14 14 14 13 12 12 11 11 11 11 11 11 10 8 7 5 5 4 3 3 1 1 1 1 2 4 3 4 5 8 10 11 12 12 13 14 14 14
16 15 14 13 13 13 13 14 13 13 12 11 10 10 10 11 12 10 7 7 7 5 4 3 2 1 1 1 2 1 3 4 4 2 4 6 7 7 9 12 13 14 15
14 14 15 15 14 12 16 19 16 12 12 12 10 9 9 10 11 12 11 10 10 7 6 4 3 3 3 2 1 1 1 3 4 2 3 5 3 4 6 9 12 14 13
13 14 14 14 14 15 19 20 19 13 12 11 11 9 7 8 9 7 8 8 7 7 7 6 4 4 3 3 2 1 1 2 3 3 3 4 3 5 7 10 12 12 13
13 13 13 14 13 14 19 20 20 13 10 10 10 10 10 9 9 9 8 6 4 3 4 4 4 4 2 2 2 2 1 1 2 2 1 3 3 5 7 8 9 11 14
12 12 13 14 13 13 19 20 18 10 9 9 8 9 10 9 12 13 10 8 5 3 3 5 4 4 4 4 4 3 2 2 3 2 1 2 3 5 5 3 7 12 15
11 11 11 12 13 12 18 20 19 10 9 8 7 7 11 11 13 14 10 9 7 5 4 4 4 4 4 4 4 2 2 0 1 2 1 2 2 4 4 3 4 8 10
Wind_Direction
147 145 142 139 137 135 128 121 119 117 114 113 122 127 121 115 102 82 62 58 71 87 91 85 81 77 71 63 54 47 40 34 29 25 20 16 12 8 5 2 359 357 354
155 152 146 145 147 146 141 136 133 127 121 118 115 128 132 128 118 101 78 62 63 73 83 86 77 74 69 58 45 36 28 22 18 14 10 6 3 359 356 354 352 350 347
162 159 154 155 158 153 142 131 123 118 114 111 108 120 131 139 138 130 110 85 73 61 52 66 59 59 54 41 27 19 12 8 3 0 358 356 352 350 348 347 345 344 342
167 163 161 165 163 155 146 136 129 118 118 119 118 110 115 137 152 163 155 140 113 74 31 14 3 1 356 359 356 355 351 349 346 345 344 343 342 341 340 340 339 338 337
172 169 169 168 162 155 150 150 136 135 141 137 126 96 78 142 174 177 182 194 197 203 255 349 6 342 327 323 325 330 331 331 331 331 331 333 334 333 333 334 333 333 331
176 173 171 167 163 157 158 152 142 128 136 139 112 73 21 320 209 205 211 218 226 230 230 227 267 321 321 314 310 315 318 319 320 322 324 326 327 327 328 328 328 328 328
178 176 174 168 169 173 172 158 141 137 131 130 103 42 350 326 257 243 227 224 237 239 236 234 240 259 287 309 309 309 313 314 315 317 319 321 322 323 323 324 325 325 324
181 184 177 177 176 172 168 167 151 145 146 156 137 118 333 324 301 250 238 231 238 238 236 238 240 249 266 285 300 308 312 313 313 315 317 319 320 320 321 322 323 323 324
185 185 183 178 178 178 183 180 171 162 164 182 169 153 162 229 283 303 262 242 238 236 240 240 244 248 256 268 285 301 309 314 313 314 316 319 319 319 321 322 322 322 322
188 188 185 182 181 183 183 184 180 172 160 174 180 162 154 153 165 294 304 280 251 240 237 233 236 243 250 261 274 288 300 306 309 311 314 316 317 317 319 320 321 321 321
191 190 187 185 185 187 186 183 180 180 176 174 172 160 144 115 148 177 268 298 302 261 235 225 232 240 249 259 265 277 292 299 303 306 310 313 315 316 317 319 320 321 320
193 193 190 190 189 189 188 188 186 185 188 181 179 172 167 170 183 180 218 252 270 283 268 240 231 238 249 256 264 281 290 295 299 303 309 312 314 317 318 320 320 321 321
196 196 193 192 192 191 188 184 186 190 189 188 190 193 189 188 165 165 177 214 251 287 305 284 243 243 255 258 266 283 288 292 296 300 305 309 312 315 317 318 319 320 320
198 191 192 193 191 188 186 185 190 192 192 195 196 191 190 191 172 170 169 164 221 292 288 272 282 248 259 258 271 281 283 291 297 300 303 307 310 313 316 318 319 320 320
189 185 189 191 190 187 186 184 192 192 189 194 194 191 192 189 182 180 168 167 175 231 269 263 265 284 277 272 286 286 282 291 298 300 303 306 309 313 316 318 319 319 320
185 184 188 189 188 188 186 185 186 184 185 190 186 185 193 186 183 181 179 177 178 190 233 251 241 267 298 298 297 288 283 296 298 302 304 307 311 314 317 318 318 321 322
186 186 188 188 188 188 186 187 187 181 187 188 186 189 194 184 184 186 178 175 184 181 220 259 235 254 264 292 311 300 292 293 297 302 305 308 312 317 319 319 320 321 323
189 187 184 185 187 187 186 187 187 185 188 190 190 188 192 184 189 185 183 189 195 194 204 242 244 238 248 277 301 303 304 300 296 301 307 311 315 318 319 320 321 324 326
187 185 183 186 186 186 186 187 186 186 189 190 189 190 191 184 192 191 187 193 197 193 196 215 241 228 258 298 315 307 308 301 308 307 311 315 315 320 321 323 325 328 329
185 186 186 186 184 183 184 183 182 183 186 188 189 190 189 188 193 191 192 196 185 181 181 199 227 236 253 289 299 303 313 315 315 308 313 315 316 321 323 325 327 327 328
184 183 181 181 180 181 184 180 180 181 182 184 185 187 189 188 189 187 186 185 177 180 179 191 211 221 245 284 278 274 295 319 306 299 317 310 309 311 317 322 324 325 326
179 178 181 181 182 185 179 176 177 180 181 182 183 184 183 184 187 187 183 177 174 178 185 184 202 221 238 235 235 279 306 337 307 314 320 302 302 303 306 309 318 325 329
176 178 180 180 183 183 174 175 175 177 179 182 181 178 175 180 177 176 175 170 174 175 172 173 189 210 215 216 197 222 246 268 270 299 325 289 303 307 308 312 319 326 331
177 179 179 180 180 179 172 173 171 174 173 176 176 174 174 175 174 165 157 155 159 169 173 167 177 193 192 180 178 186 219 287 295 309 346 285 305 308 313 309 315 328 334
174 176 176 175 176 175 170 169 165 170 169 168 168 168 168 170 168 159 154 154 150 145 130 132 122 108 104 103 101 86 51 15 321 303 356 309 306 315 305 297 313 326 330
170 167 169 174 175 174 171 168 163 165 164 161 157 164 168 166 164 160 161 160 164 167 142 122 95 79 74 79 84 101 148 81 326 289 313 327 310 332 316 298 303 314 320
Height
1513 1516 1519 1522 1524 1527 1529 1531 1533 1535 1537 1539 1540 1542 1543 1544 1544 1545 1546 1546 1547 1547 1547 1547 1546 1546 1545 1544 1544 1543 1542 1541 1539 1538 1536 1535 1533 1531 1529 1527 1525 1523 1521
1512 1515 1518 1521 1524 1526 1529 1531 1533 1535 1537 1539 1540 1542 1543 1544 1544 1545 1546 1546 1546 1547 1547 1547 1546 1546 1545 1544 1544 1543 1542 1540 1539 1537 1536 1534 1532 1530 1528 1526 1524 1522 1520
1510 1513 1517 1520 1523 1525 1528 1530 1533 1535 1537 1539 1540 1541 1542 1543 1544 1545 1545 1546 1546 1546 1546 1546 1546 1545 1545 1544 1543 1542 1541 1540 1538 1537 1535 1533 1531 1529 1527 1525 1523 1520 1518
1508 1512 1515 1518 1522 1524 1527 1529 1532 1534 1536 1538 1539 1541 1542 1543 1543 1544 1545 1545 1545 1545 1545 1545 1545 1545 1544 1543 1542 1541 1540 1539 1537 1536 1534 1532 1530 1528 1526 1523 1521 1518 1516
1506 1510 1513 1517 1520 1523 1526 1528 1531 1533 1535 1537 1538 1540 1541 1542 1542 1543 1543 1544 1544 1544 1544 1544 1544 1544 1543 1542 1541 1540 1539 1537 1536 1534 1532 1530 1528 1526 1524 1521 1519 1516 1513
1503 1507 1511 1514 1518 1521 1524 1526 1529 1532 1534 1536 1537 1538 1539 1540 1541 1541 1542 1542 1543 1543 1543 1543 1542 1542 1541 1540 1539 1538 1537 1535 1534 1532 1530 1528 1526 1524 1521 1519 1516 1513 1510
1500 1504 1508 1511 1515 1518 1521 1524 1527 1530 1532 1534 1536 1537 1538 1538 1539 1539 1540 1540 1541 1541 1541 1541 1540 1540 1539 1538 1537 1536 1534 1533 1531 1530 1528 1526 1523 1521 1518 1516 1513 1510 1507
1496 1500 1504 1508 1511 1515 1518 1521 1524 1527 1529 1532 1533 1535 1536 1537 1536 1537 1537 1538 1538 1539 1539 1538 1538 1537 1537 1536 1535 1533 1532 1530 1528 1526 1524 1522 1520 1518 1515 1512 1509 1506 1503
1492 1496 1500 1504 1508 1511 1515 1518 1521 1524 1526 1529 1531 1533 1534 1533 1534 1535 1535 1535 1536 1536 1536 1536 1535 1535 1534 1533 1532 1530 1529 1527 1525 1523 1521 1518 1516 1514 1511 1508 1505 1502 1498
1487 1492 1496 1500 1504 1508 1511 1515 1518 1521 1524 1526 1528 1530 1532 1532 1532 1532 1533 1533 1533 1533 1533 1533 1532 1532 1531 1530 1528 1527 1525 1523 1521 1519 1517 1514 1512 1509 1507 1504 1500 1497 1494
1482 1487 1491 1496 1500 1503 1507 1511 1514 1517 1520 1522 1524 1526 1528 1529 1530 1531 1530 1530 1531 1531 1530 1530 1529 1528 1527 1526 1525 1523 1521 1519 1517 1515 1512 1510 1507 1505 1502 1499 1495 1492 1489
1476 1481 1486 1490 1495 1499 1502 1506 1510 1513 1516 1519 1521 1523 1524 1526 1527 1528 1528 1527 1527 1527 1527 1526 1526 1525 1524 1522 1521 1519 1518 1515 1513 1511 1508 1505 1502 1500 1497 1494 1490 1487 1484
1469 1474 1479 1484 1489 1493 1498 1502 1506 1509 1512 1514 1517 1519 1521 1522 1524 1525 1525 1524 1524 1524 1523 1523 1522 1521 1520 1519 1517 1515 1513 1511 1509 1506 1503 1501 1498 1495 1492 1489 1485 1482 1479
1463 1468 1474 1479 1483 1488 1492 1497 1500 1504 1507 1510 1512 1515 1517 1518 1520 1521 1522 1522 1521 1520 1520 1519 1519 1518 1516 1515 1513 1511 1509 1507 1504 1502 1499 1496 1493 1490 1487 1483 1480 1477 1473
1458 1463 1468 1473 1478 1483 1487 1491 1495 1498 1502 1505 1507 1510 1512 1514 1515 1517 1517 1518 1519 1517 1515 1515 1515 1514 1512 1511 1509 1506 1504 1502 1500 1497 1494 1492 1488 1485 1482 1478 1475 1472 1468
1451 1457 1462 1467 1472 1477 1481 1485 1489 1493 1497 1499 1502 1505 1507 1509 1510 1512 1513 1514 1514 1514 1512 1511 1511 1510 1508 1507 1505 1502 1500 1498 1495 1493 1490 1487 1484 1480 1477 1474 1470 1467 1463
1445 1450 1455 1461 1466 1470 1475 1479 1483 1487 1491 1494 1496 1499 1501 1504 1506 1507 1508 1509 1509 1509 1508 1507 1507 1506 1504 1503 1501 1498 1496 1493 1491 1488 1485 1482 1479 1476 1472 1469 1465 1462 1458
1438 1443 1449 1454 1459 1464 1469 1473 1477 1481 1484 1487 1490 1493 1495 1498 1500 1502 1503 1503 1504 1504 1504 1503 1502 1501 1500 1498 1496 1494 1492 1489 1487 1484 1481 1478 1475 1471 1467 1464 1460 1457 1453
1431 1437 1443 1448 1453 1457 1462 1466 1471 1475 1478 1482 1485 1487 1490 1492 1494 1496 1497 1498 1499 1499 1499 1498 1497 1496 1495 1493 1491 1489 1487 1485 1482 1479 1477 1473 1470 1466 1463 1459 1456 1452 1449
1425 1431 1436 1441 1446 1451 1456 1460 1465 1469 1473 1476 1479 1482 1484 1486 1489 1490 1491 1492 1493 1494 1494 1493 1492 1491 1490 1488 1486 1484 1482 1480 1478 1475 1472 1469 1466 1462 1459 1455 1451 1448 1444
1419 1425 1430 1435 1440 1445 1450 1454 1459 1463 1467 1470 1473 1476 1479 1481 1483 1485 1486 1487 1488 1488 1488 1488 1487 1486 1484 1483 1481 1479 1477 1475 1472 1470 1467 1465 1461 1458 1454 1450 1447 1443 1440
1412 1418 1424 1429 1434 1439 1443 1448 1453 1457 1461 1465 1468 1470 1473 1476 1478 1479 1481 1482 1483 1483 1483 1483 1482 1481 1480 1479 1478 1476 1473 1470 1467 1465 1462 1460 1457 1453 1449 1446 1443 1439 1436
1406 1412 1418 1423 1428 1433 1438 1443 1448 1452 1456 1459 1462 1465 1468 1470 1473 1474 1476 1477 1478 1478 1479 1479 1478 1477 1476 1475 1474 1472 1470 1467 1464 1461 1457 1454 1452 1448 1446 1442 1439 1436 1432
1400 1406 1412 1418 1423 1428 1433 1438 1443 1447 1451 1454 1457 1460 1463 1465 1468 1470 1471 1472 1473 1474 1474 1474 1474 1474 1473 1472 1470 1469 1466 1464 1461 1458 1454 1450 1446 1444 1441 1439 1436 1432 1429
1395 1401 1407 1412 1418 1423 1428 1433 1438 1442 1446 1449 1453 1456 1458 1461 1463 1465 1467 1468 1469 1470 1470 1470 1470 1470 1469 1468 1467 1465 1462 1460 1456 1454 1451 1447 1443 1439 1437 1435 1433 1429 1425
1390 1396 1402 1407 1413 1418 1423 1428 1433 1437 1441 1445 1448 1451 1454 1456 1459 1460 1462 1464 1465 1465 1466 1466 1467 1466 1466 1464 1463 1461 1459 1457 1453 1450 1448 1445 1441 1437 1433 1430 1429 1426 1422